Location: Unspecified
(22.6800°N, 112.2000°E)
Time: 02:23:13
(UTC+08:00)

S-56A Canister/Altair - Pass Details

Date: 02 August 2021
Orbit: 632 x 2500 km, 38.9° (Epoch: 26 September)

Event Time Altitude Azimuth Distance (km) Brightness Sun altitude
Rises 10:31:40 0° 174° (S) 4,200 11.4 60.1°
Reaches altitude 10° 10:36:46 10° 146° (SE) 3,668 11.4 61.3°
Maximum altitude 10:40:21 12° 124° (SE) 3,758 11.6 62.1°
Drops below altitude 10° 10:44:21 10° 102° (ESE) 4,254 11.9 63.0°
Sets 10:51:28 0° 78° (ENE) 5,697 12.3 64.7°
